This is the latest recevied weather packets stored in our database for station/object HA9OZD-18. If no packets are shown the sender has not sent any weather packets the latest 10 day(s).
| Time | Temp. | Humidity | Pressure | Rain* | Wind** | Luminosity | Snow |
|---|---|---|---|---|---|---|---|
| 1787993125 | 19.44° C | 64% | 1015.8 hPa | - | - | - | - |
| 1787989525 | 17.78° C | 77% | 1015.1 hPa | - | - | - | - |
| 1787985924 | 15.56° C | 89% | 1014.9 hPa | - | - | - | - |
| 1787982324 | 14.44° C | 94% | 1014.3 hPa | - | - | - | - |
| 1787978724 | 13.89° C | 95% | 1015 hPa | - | - | - | - |
| 1787975123 | 14.44° C | 86% | 1014.8 hPa | - | - | - | - |
| 1787971523 | 15° C | 83% | 1014.3 hPa | - | - | - | - |
| 1787967923 | 16.11° C | 72% | 1015.1 hPa | - | - | - | - |
| 1787964323 | 16.11° C | 65% | 1015.4 hPa | - | - | - | - |
| 1787960722 | 17.22° C | 49% | 1016 hPa | - | - | - | - |
| 1787957122 | 17.22° C | 42% | 1016.2 hPa | - | - | - | - |
| 1787953522 | 17.22° C | 39% | 1016.3 hPa | - | - | - | - |
| 1787949922 | 17.22° C | 37% | 1016.9 hPa | - | - | - | - |
| 1787946368 | 17.78° C | 35% | 1017.3 hPa | - | - | - | - |
| 1787946321 | 17.78° C | 35% | 1017.3 hPa | - | - | - | - |
| 1787942734 | 17.78° C | 35% | 1017.5 hPa | - | - | - | - |
| 1787939134 | 18.33° C | 34% | 1017.5 hPa | - | - | - | - |
| 1787935534 | 19.44° C | 33% | 1017.4 hPa | - | - | - | - |
| 1787931933 | 20.56° C | 32% | 1017.4 hPa | - | - | - | - |
| 1787928333 | 22.22° C | 30% | 1018.2 hPa | - | - | - | - |
| 1787924733 | 25° C | 26% | 1018.5 hPa | - | - | - | - |
| 1787921133 | 31.11° C | 20% | 1018.9 hPa | - | - | - | - |
| 1787917532 | 25° C | 29% | 1019.3 hPa | - | - | - | - |
| 1787913932 | 22.22° C | 35% | 1019.8 hPa | - | - | - | - |
| 1787910332 | 21.11° C | 37% | 1020.1 hPa | - | - | - | - |
* Rain since midnight (hover to see other rain measurements)
** Current wind speed in m/s (hover to see current wind gust speed)